Regional Weather Roundup
Issued by NWS

Home | Current Version | Previous Version | Graphics & Text | Print | Product List | Glossary On
Versions: 1 2 3 4 5 6 7 8 9 10 11 12 13 14 15 16 17 18 19 20 21 22 23 24 25 26 27
000
ASUS45 KSLC 160910
RWRUT

UTAH REGIONAL WEATHER ROUNDUP
NATIONAL WEATHER SERVICE SALT LAKE CITY UT
300 AM MDT WED APR 16 2014

UTZ001>011-023>025-161000-

NORTHERN UTAH

CITY           SKY/WX    TMP DP  RH WIND       PRES   REMARKS
HILL AFB       CLOUDY    45  14  28 NW7       29.96S
LOGAN          CLEAR     38  20  48 VRB6      29.96R WCI  33
OGDEN          CLOUDY    44  16  32 N5        29.96S
PROVO AIRPORT  PTCLDY    48  25  40 NW13      29.95R
SALT LAKE CITY CLOUDY    46  19  34 N10       29.95S
VERNAL         MOCLDY    45   9  23 N5        29.85R
WENDOVER       MOCLDY    46  16  29 N15       29.99S
HEBER CITY     MOCLDY    41  12  30 N7        29.95R
WEST JORDAN    CLEAR     45  25  45 NW9       29.97R

$$

UTZ012>022-026-027-161000-

SOUTHERN UTAH

CITY           SKY/WX    TMP DP  RH WIND       PRES   REMARKS
BRYCE CANYON   CLEAR     28   9  44 W12       29.98F WCI  18
CEDAR CITY     CLEAR     43  11  27 CALM      29.93R
MILFORD        PTCLDY    46  23  40 N15       29.92S
MOAB/CYNLANDS  CLEAR     41  16  36 CALM      29.81R
PRICE          CLEAR     46   8  21 W7        29.85F
ST GEORGE      PTSUNNY   54   9  16 SE5       29.84S

$$

REGIONAL REPORTS     COLORADO/ARIZONA

CITY           SKY/WX    TMP DP  RH WIND       PRES   REMARKS
CRAIG, CO      CLOUDY    41  14  33 NW12G21   29.90R
GRAND JUNCTION MOCLDY    41  29  62 CALM      29.83R
RIFLE          CLOUDY    47  20  34 W10       29.81S
MONTROSE       CLOUDY    47  23  38 W3        29.84S
CORTEZ         CLEAR     28  16  60 E3        29.88F
PAGE, AZ       CLEAR     58   2  10 W6        29.84F
GRAND CANYON   CLEAR     24  -3  30 E3        29.99S
KINGMAN        CLEAR     54   2  12 CALM      29.85S
FLAGSTAFF      CLEAR     31   3  30 SW5       29.99F WCI  26

$$

REGIONAL REPORTS    NEVADA/IDAHO/WYOMING

CITY           SKY/WX    TMP DP  RH WIND       PRES   REMARKS
LAS VEGAS, NV  PTCLDY    64  16  15 S12       29.72F
ELY            MOCLDY    33  18  53 S9        29.97F WCI  25
ELKO           CLOUDY    39  18  42 CALM      29.99S
POCATELLO, ID  CLEAR     33  18  53 NE5       30.01R WCI  29
BURLEY         CLOUDY    38  22  52 W7        29.99S WCI  33
EVANSTON, WY   MOCLDY    33  11  39 W13       29.96S WCI  24
ROCK SPRINGS   CLEAR     31  19  61 W13       29.91S WCI  21

$$



USA.gov is the U.S. government's official web portal to all federal, state and local government web resources and services.